Overview Statistics Trail Chart Weather Telemetry Raw packets
 

This is the latest recevied weather packets stored in our database for station/object K1TTC. If no packets are shown the sender has not sent any weather packets the latest 10 day(s).

<< 33 34 35 36 37 38 39 >>
Time Temp. Humidity Pressure Rain* Wind** Luminosity Snow
1788123706 26.11° C 50% 1017.8 hPa 0 mm - 98 W/m² -
1788123101 26.11° C 50% 1017.8 hPa 0 mm - 111 W/m² -
1788122500 26.11° C 49% 1017.8 hPa 0 mm - 134 W/m² -
1788121900 26.11° C 48% 1018 hPa 0 mm - 192 W/m² -
1788121312 26.11° C 48% 1018 hPa 0 mm - 264 W/m² -
1788120700 26.11° C 47% 1018.1 hPa 0 mm - 149 W/m² -
1788120104 26.11° C 46% 1018.1 hPa 0 mm - 121 W/m² -
1788119497 26.67° C 46% 1018.2 hPa 0 mm - 155 W/m² -
1788118899 26.67° C 45% 1018.4 hPa 0 mm - 169 W/m² -
1788118292 26.67° C 45% 1018.7 hPa 0 mm - 178 W/m² -
1788117708 27.22° C 44% 1018.8 hPa 0 mm - 86 W/m² -
1788117092 27.78° C 43% 1019 hPa 0 mm - 98 W/m² -
1788116492 28.33° C 42% 1019 hPa 0 mm - 155 W/m² -
1788115892 28.89° C 42% 1019 hPa 0 mm - 297 W/m² -
1788115291 28.89° C 40% 1019.1 hPa 0 mm - 338 W/m² -
1788114691 28.89° C 42% 1019.2 hPa 0 mm - 401 W/m² -
1788114091 28.89° C 43% 1019.2 hPa 0 mm - 371 W/m² -
1788113490 28.33° C 44% 1019.4 hPa 0 mm - 381 W/m² -
1788112886 28.33° C 43% 1019.6 hPa 0 mm - 478 W/m² -
1788112286 27.78° C 43% 1019.7 hPa 0 mm - 373 W/m² -
1788111686 27.78° C 43% 1019.8 hPa 0 mm - 693 W/m² -
1788111086 27.78° C 43% 1020.1 hPa 0 mm - 533 W/m² -
1788110486 27.78° C 44% 1020.1 hPa 0 mm - 476 W/m² -
1788109885 27.78° C 46% 1020 hPa 0 mm - 483 W/m² -
1788109283 27.78° C 44% 1020 hPa 0 mm - 424 W/m² -

* Rain latest hour (hover to see other rain measurements)
** Current wind speed in m/s (hover to see current wind gust speed)